Terminal Aerodrome Forecast
Issued by NWS Blacksburg, VA

Current Version | Previous Version | Graphics & Text | Print | Product List | Glossary On
Versions: 1 2 3 4 5 6 7 8 9 10 11 12 13 14 15 16 17 18 19 20 21 22 23 24 25 26 27 28 29 30 31 32 33 34 35 36 37 38 39 40 41 42 43 44 45 46 47 48 49 50
000
FTUS41 KRNK 202330
TAFBLF
TAF
KBLF 202330Z 2100/2124 25007KT P6SM SCT050 OVC080
     FM210400 27005KT P6SM VCSH SCT012 BKN018
      TEMPO 2109/2112 3SM BR BKN012
     FM211500 30010G18KT P6SM -SHRA OVC015=

USA.gov is the U.S. government's official web portal to all federal, state and local government web resources and services.